Tracking 30922 objects as of 1-Jul-2025
HD Live streaming from Space Station
objects crossing your sky now

GALILEO 23 (2C9)

Track GALILEO 23 (2C9) now!
GALILEO 23 (2C9) is classified as:


NORAD ID: 43566
Int'l Code: 2018-060C
Perigee: 23,223.9 km
Apogee: 23,234.3 km
Inclination: 57.3 °
Period: 844.7 minutes
Semi major axis: 29600 km
RCS: Unknown
Launch date: July 25, 2018
Source: European Space Agency (ESA)
Launch site: FRENCH GUIANA (FRGUI)
Your satellite tracking list
Your tracking list is empty




NASA's NSSDC Master Catalog

Two Line Element Set (TLE):
1 43566U 18060C   25181.55453618 -.00000099  00000-0  00000+0 0  9991
2 43566  57.2704 351.2774 0001750 312.5788  47.4058  1.70476025 43194
Source of the keplerian elements: AFSPC